Weather History for KGOV - September, 2013

Change the Weather History Date:

Sunday, September 29, 2013

  Actual Average (KHTL) Record (KHTL)
Temperature  
Mean Temperature 53 °F 52 °F  
Max Temperature 68 °F 63 °F 83 °F (1922)
Min Temperature 38 °F 41 °F 21 °F (1918)
Degree Days  
Heating Degree Days 12 13  
Month to date heating degree days 240  
Since 1 July heating degree days 367  
Cooling Degree Days 0 0  
Month to date cooling degree days 18  
Year to date cooling degree days 283  
Growing Degree Days 3 (Base 50)    
Moisture  
Dew Point 48 °F    
Average Humidity 73    
Maximum Humidity 100    
Minimum Humidity 37    
Precipitation  
Precipitation 0.00 in 0.10 in 1.25 in (1986)
Month to date precipitation 3.00  
Year to date precipitation 22.12  
Sea Level Pressure  
Sea Level Pressure 29.98 in    
Wind  
Wind Speed 7 mph (WNW)    
Max Wind Speed 17 mph    
Max Gust Speed 22 mph    
Visibility 10 miles    
Events Rain    
T = Trace of Precipitation, MM = Missing Value Source: NWS Daily Summary

Daily Weather History Graph

Daily Weather History Graph

Search for Another Location

Airport or City:

Trip Planner

Search our weather history database for the weather conditions in past years. The results will help you decide how hot, cold, wet, or windy it might be!

Date:

Astronomy

Sep. 29, 2013 Rise Set
Actual Time 7:34 AM EDT 7:22 PM EDT
Civil Twilight 7:05 AM EDT 7:51 PM EDT
Nautical Twilight 6:31 AM EDT 8:25 PM EDT
Astronomical Twilight 5:57 AM EDT 9:00 PM EDT
Moon 2:04 AM EDT (9/29) 4:28 PM EDT (9/29)
Length of Visible Light 12h 46m
Length of Day
11h 48m
Waning Crescent, 27% of the Moon is Illuminated
Sep 29
Waning Crescent
Oct 4
New
Oct 11
First Quarter
Oct 18
Full
Oct 26
Last Quarter

Hourly Weather History & Observations

Time (EDT) Temp. Dew Point Humidity Pressure Visibility Wind Dir Wind Speed Gust Speed Precip Events Conditions
12:14 AM 66.2 °F 52.5 °F 61% 29.93 in 10.0 mi SSE 10.4 mph 16.1 mph N/A   Overcast
12:35 AM 68.0 °F 54.1 °F 61% 29.93 in 10.0 mi SSE 8.1 mph - N/A   Overcast
12:55 AM 67.8 °F 53.8 °F 61% 29.92 in 10.0 mi SSE 10.4 mph 18.4 mph N/A   Overcast
1:14 AM 66.2 °F 52.2 °F 61% 29.91 in 10.0 mi SSE 10.4 mph - N/A   Overcast
1:35 AM 67.3 °F 53.6 °F 61% 29.91 in 10.0 mi South 8.1 mph - N/A   Overcast
1:55 AM 66.2 °F 53.8 °F 64% 29.91 in 10.0 mi South 10.4 mph - N/A Rain Rain
2:14 AM 65.1 °F 54.1 °F 68% 29.90 in 10.0 mi South 6.9 mph - N/A Rain Rain
2:35 AM 63.5 °F 53.4 °F 70% 29.90 in 10.0 mi South 6.9 mph - N/A Rain Light Rain
2:55 AM 61.9 °F 55.0 °F 78% 29.89 in 10.0 mi South 3.5 mph - N/A   Overcast
3:14 AM 61.7 °F 55.8 °F 81% 29.89 in 10.0 mi South 4.6 mph - N/A Rain Light Rain
3:35 AM 61.3 °F 56.3 °F 83% 29.89 in 10.0 mi South 4.6 mph - N/A Rain Light Rain
3:55 AM 61.0 °F 57.4 °F 88% 29.89 in 10.0 mi South 4.6 mph - N/A Rain Rain
4:14 AM 60.4 °F 58.3 °F 93% 29.89 in 10.0 mi South 3.5 mph - N/A Rain Light Rain
4:35 AM 60.8 °F 58.1 °F 91% 29.90 in 10.0 mi West 6.9 mph - N/A   Overcast
4:54 AM 59.9 °F 58.5 °F 95% 29.89 in 7.0 mi West 4.6 mph - N/A Rain Rain
5:14 AM 58.8 °F 58.3 °F 98% 29.91 in 5.0 mi WNW 9.2 mph - N/A   Drizzle
5:35 AM 58.5 °F 58.1 °F 99% 29.94 in 5.0 mi West 6.9 mph - N/A Rain Heavy Rain
5:54 AM 56.5 °F 56.5 °F 100% 29.92 in 7.0 mi WNW 6.9 mph - N/A Rain Heavy Rain
6:15 AM 55.9 °F 55.9 °F 100% 29.92 in 10.0 mi WNW 6.9 mph - N/A Rain Rain
6:35 AM 55.9 °F 55.8 °F 99% 29.95 in 10.0 mi WNW 9.2 mph - N/A Rain Light Rain
6:54 AM 55.9 °F 55.6 °F 99% 29.94 in 10.0 mi WNW 5.8 mph - N/A   Overcast
7:15 AM 55.6 °F 55.6 °F 100% 29.93 in 10.0 mi WNW 5.8 mph - N/A   Overcast
7:35 AM 55.0 °F 55.0 °F 100% 29.95 in 10.0 mi WNW 4.6 mph - N/A   Mostly Cloudy
7:54 AM 55.0 °F 54.9 °F 99% 29.96 in 10.0 mi West 5.8 mph - N/A   Scattered Clouds
8:15 AM 55.8 °F 55.6 °F 99% 29.98 in 10.0 mi WNW 6.9 mph - N/A   Mostly Cloudy
8:35 AM 54.5 °F 53.8 °F 97% 29.98 in 10.0 mi WNW 3.5 mph - N/A   Scattered Clouds
8:54 AM 53.6 °F 53.2 °F 99% 29.99 in 10.0 mi WNW 4.6 mph - N/A   Clear
9:15 AM 55.9 °F 55.6 °F 99% 29.99 in 10.0 mi WNW 5.8 mph - N/A   Clear
9:34 AM 55.9 °F 53.4 °F 91% 29.99 in 10.0 mi WNW 8.1 mph - N/A   Clear
9:54 AM 56.3 °F 52.9 °F 88% 30.00 in 10.0 mi WNW 8.1 mph - N/A   Clear
10:15 AM 58.3 °F 52.0 °F 80% 30.00 in 10.0 mi WNW 8.1 mph - N/A   Scattered Clouds
10:34 AM 58.5 °F 50.5 °F 75% 30.00 in 10.0 mi NW 10.4 mph - N/A   Clear
10:55 AM 58.6 °F 48.0 °F 68% 30.00 in 10.0 mi WNW 10.4 mph - N/A   Clear
11:15 AM 60.6 °F 47.3 °F 61% 30.00 in 10.0 mi NW 9.2 mph - N/A   Clear
11:34 AM 61.0 °F 45.7 °F 57% 30.01 in 10.0 mi NW 12.7 mph 17.3 mph N/A   Clear
11:42 AM 61.0 °F 45.7 °F 57% 30.01 in 10.0 mi NNW 12.7 mph 18.4 mph N/A   Clear
12:18 PM 62.6 °F 46.4 °F 55% 30.02 in 10.0 mi WNW 9.2 mph 17.3 mph N/A   Scattered Clouds
12:20 PM 62.8 °F 47.3 °F 57% 30.02 in 10.0 mi WNW 9.2 mph 17.3 mph N/A   Scattered Clouds
12:35 PM 63.0 °F 45.5 °F 53% 30.02 in 10.0 mi WNW 8.1 mph 17.3 mph N/A   Scattered Clouds
12:54 PM 63.5 °F 44.4 °F 50% 30.02 in 10.0 mi NW 8.1 mph - N/A   Scattered Clouds
1:15 PM 63.5 °F 44.1 °F 49% 30.02 in 10.0 mi NNW 11.5 mph 18.4 mph N/A   Clear
1:34 PM 63.5 °F 44.6 °F 50% 30.03 in 10.0 mi North 10.4 mph 16.1 mph N/A   Clear
1:54 PM 63.9 °F 44.6 °F 50% 30.02 in 10.0 mi NNW 13.8 mph - N/A   Clear
2:15 PM 66.2 °F 43.5 °F 44% 30.01 in 10.0 mi North 17.3 mph 21.9 mph N/A   Clear
2:34 PM 66.2 °F 41.7 °F 41% 30.01 in 10.0 mi WNW 13.8 mph 21.9 mph N/A   Clear
2:55 PM 66.2 °F 41.0 °F 40% 30.01 in 10.0 mi NW 12.7 mph 20.7 mph N/A   Clear
3:14 PM 66.2 °F 40.3 °F 39% 30.01 in 10.0 mi NW 11.5 mph 17.3 mph N/A   Clear
3:34 PM 67.1 °F 42.3 °F 40% 30.01 in 10.0 mi NNW 12.7 mph 17.3 mph N/A   Clear
3:55 PM 66.2 °F 40.1 °F 38% 30.01 in 10.0 mi North 9.2 mph - N/A   Clear
4:14 PM 66.7 °F 41.7 °F 40% 30.01 in 10.0 mi NNW 9.2 mph - N/A   Clear
4:35 PM 66.4 °F 39.9 °F 38% 30.01 in 10.0 mi North 9.2 mph - N/A   Clear
4:55 PM 66.4 °F 41.0 °F 40% 30.00 in 10.0 mi NNW 9.2 mph - N/A   Clear
5:14 PM 66.2 °F 39.2 °F 37% 30.00 in 10.0 mi North 6.9 mph - N/A   Clear
5:35 PM 66.2 °F 40.3 °F 39% 30.01 in 10.0 mi North 5.8 mph - N/A   Clear
5:55 PM 65.3 °F 40.1 °F 40% 30.01 in 10.0 mi NNW 5.8 mph - N/A   Clear
6:14 PM 63.7 °F 39.7 °F 41% 30.01 in 10.0 mi NNW 6.9 mph - N/A   Clear
6:35 PM 63.1 °F 41.0 °F 44% 30.01 in 10.0 mi NNW 4.6 mph - N/A   Clear
6:54 PM 60.8 °F 41.0 °F 48% 30.01 in 10.0 mi NNW 4.6 mph - N/A   Clear
7:15 PM 58.5 °F 41.5 °F 53% 30.01 in 10.0 mi Calm Calm - N/A   Clear
7:35 PM 53.6 °F 43.9 °F 70% 30.01 in 10.0 mi Calm Calm - N/A   Clear
7:54 PM 52.7 °F 45.7 °F 77% 30.02 in 10.0 mi Calm Calm - N/A   Clear
8:15 PM 50.4 °F 44.6 °F 81% 30.02 in 10.0 mi Calm Calm - N/A   Clear
8:34 PM 48.4 °F 45.5 °F 90% 30.02 in 10.0 mi Calm Calm - N/A   Clear
8:54 PM 47.8 °F 46.6 °F 95% 30.03 in 10.0 mi Calm Calm - N/A   Clear
9:15 PM 48.4 °F 46.0 °F 92% 30.03 in 10.0 mi Calm Calm - N/A   Clear
9:34 PM 45.9 °F 44.4 °F 95% 30.03 in 10.0 mi Calm Calm - N/A   Clear
9:55 PM 43.3 °F 42.6 °F 97% 30.03 in 10.0 mi Calm Calm - N/A   Clear
10:15 PM 43.0 °F 42.4 °F 98% 30.04 in 10.0 mi Calm Calm - N/A   Clear
10:34 PM 42.1 °F 41.7 °F 99% 30.03 in 7.0 mi Calm Calm - N/A   Clear
10:55 PM 41.5 °F 41.4 °F 99% 30.02 in 10.0 mi Calm Calm - N/A   Clear
11:14 PM 39.2 °F 39.0 °F 99% 30.02 in 3.0 mi Calm Calm - N/A   Clear
11:35 PM 38.8 °F 38.8 °F 100% 30.03 in 1.5 mi Calm Calm - N/A   Mist
11:55 PM 38.8 °F 38.8 °F 100% 30.03 in 10.0 mi Calm Calm - N/A   Clear